This is the latest recevied weather packets stored in our database for station/object K8DJB-1. If no packets are shown the sender has not sent any weather packets the latest 10 day(s).
| Time | Temp. | Humidity | Pressure | Rain* | Wind** | Luminosity | Snow |
|---|---|---|---|---|---|---|---|
| 1778079337 | 10° C | 47% | 1012.5 hPa | 0 mm | - | - | - |
| 1778079037 | 10° C | 44% | 1012.6 hPa | 0 mm | - | - | - |
| 1778078737 | 10° C | 48% | 1012.5 hPa | 0 mm | - | - | - |
| 1778078437 | 10° C | 46% | 1012.5 hPa | 0 mm | - | - | - |
| 1778078137 | 9.44° C | 48% | 1012.4 hPa | 0 mm | - | - | - |
| 1778077837 | 9.44° C | 47% | 1012.3 hPa | 0 mm | - | - | - |
| 1778077537 | 9.44° C | 46% | 1012.2 hPa | 0 mm | - | - | - |
| 1778077237 | 10° C | 44% | 1012.2 hPa | 0 mm | - | - | - |
| 1778076937 | 9.44° C | 45% | 1012.2 hPa | 0 mm | - | - | - |
| 1778076637 | 9.44° C | 50% | 1012.1 hPa | 0 mm | - | - | - |
| 1778076337 | 9.44° C | 52% | 1012.2 hPa | 0 mm | - | - | - |
| 1778076037 | 8.89° C | 53% | 1012.1 hPa | 0 mm | - | - | - |
| 1778075737 | 8.89° C | 57% | 1012.2 hPa | 0 mm | - | - | - |
| 1778075437 | 8.33° C | 57% | 1012.1 hPa | 0 mm | - | - | - |
| 1778075137 | 8.33° C | 56% | 1012 hPa | 0 mm | - | - | - |
| 1778074826 | 8.33° C | 55% | 1011.8 hPa | 0 mm | - | - | - |
| 1778074507 | 8.33° C | 57% | 1011.8 hPa | 0 mm | - | - | - |
| 1778073423 | 7.78° C | 61% | 1011.6 hPa | 0 mm | - | - | - |
| 1778073123 | 7.78° C | 61% | 1011.6 hPa | 0 mm | - | - | - |
| 1778072523 | 7.78° C | 61% | 1011.5 hPa | 0 mm | - | - | - |
| 1778072223 | 7.22° C | 63% | 1011.6 hPa | 0 mm | - | - | - |
| 1778071923 | 7.22° C | 64% | 1011.7 hPa | 0 mm | - | - | - |
| 1778071623 | 7.22° C | 63% | 1011.7 hPa | 0 mm | - | - | - |
| 1778071325 | 6.67° C | 65% | 1011.7 hPa | 0 mm | - | - | - |
| 1778071023 | 6.67° C | 67% | 1011.6 hPa | 0 mm | - | - | - |
* Rain latest hour (hover to see other rain measurements)
** Current wind speed in m/s (hover to see current wind gust speed)